RH
57 34 26 22 20 19 18 19 20 23 81 75 60 69 77 77 70 60 47 36 33 32 32 34 38 46 62 74 72 64 61 67 66 75 90 96 99 97 94 85 88 74 63
30 23 21 21 19 19 20 20 26 54 75 90 74 65 70 74 74 73 53 40 38 39 39 37 36 38 40 48 64 70 70 73 66 61 61 75 94 76 74 67 51 59 66
23 24 22 19 18 20 25 24 27 39 44 37 45 56 55 68 76 78 70 63 61 64 66 65 50 41 40 40 40 41 45 51 48 44 39 44 49 51 54 58 60 62 66
23 23 22 19 18 20 18 18 20 20 18 18 21 28 35 42 38 34 32 38 35 45 38 36 60 70 72 70 61 60 62 61 64 67 71 66 62 64 61 71 77 75 82
27 24 23 22 21 22 21 19 19 20 21 18 17 18 17 17 16 15 15 15 15 16 20 22 22 22 26 31 35 38 40 46 44 37 42 62 67 61 53 48 66 67 73
30 28 24 26 28 30 28 21 21 23 24 22 24 24 24 22 20 17 16 14 15 15 15 14 17 19 20 21 22 23 25 25 26 26 26 30 38 51 62 78 82 72 81
28 27 25 30 31 34 30 26 26 28 27 26 27 31 30 30 26 22 19 16 15 15 14 15 15 16 18 19 20 21 22 24 27 29 35 48 64 78 82 70 63 59 51
26 27 30 30 33 32 33 30 33 32 30 30 28 26 26 26 26 24 23 21 19 16 15 16 17 17 17 17 19 20 25 28 35 45 62 82 92 76 57 54 44 43 50
32 38 38 37 39 38 35 33 31 27 27 30 28 27 27 25 26 25 25 25 23 20 18 16 16 17 17 17 20 25 31 38 46 68 88 93 86 72 60 51 48 36 25
42 38 38 38 37 35 37 34 31 27 26 27 26 25 27 26 24 23 23 25 23 22 19 18 19 19 19 22 27 40 52 72 86 84 82 78 64 59 57 51 30 26 27
39 37 36 37 36 37 37 30 27 28 27 25 25 28 29 28 27 25 23 24 23 21 20 20 21 22 24 34 49 66 80 86 82 78 68 66 61 59 40 29 28 29 29
38 41 43 40 36 39 34 32 32 30 28 26 26 30 31 29 27 26 25 24 22 22 22 23 25 29 39 63 83 91 90 74 73 64 66 62 48 31 25 26 29 29 25
42 40 41 40 42 40 35 33 31 31 28 26 28 31 31 28 26 22 22 24 22 22 24 27 35 49 68 83 84 76 69 68 66 61 51 36 26 25 28 28 26 21 16
42 42 40 38 36 37 36 35 31 27 26 25 29 31 31 27 23 23 25 22 23 27 33 42 58 74 81 71 65 70 62 61 57 42 30 28 28 27 24 18 14 11 8
41 44 46 45 42 40 36 30 26 26 28 31 33 32 29 24 25 25 23 26 32 38 48 63 76 78 64 66 58 58 57 47 35 30 30 29 26 20 15 13 9 6 6
41 41 40 39 36 33 28 27 28 32 35 35 34 30 24 24 25 24 28 36 46 58 71 72 67 58 59 58 57 50 37 33 32 28 28 23 17 16 9 7 6 5 5
33 32 32 33 29 27 29 34 39 40 38 34 26 24 27 28 28 35 44 57 70 67 65 60 54 55 60 56 41 34 34 31 27 24 20 18 12 6 5 5 5 5 4
30 30 28 28 34 41 43 44 42 37 29 25 27 29 28 36 46 54 64 68 65 60 56 56 59 57 42 36 37 33 30 29 25 21 18 9 6 5 5 5 5 4 4
33 35 41 44 44 44 42 36 29 24 26 30 32 40 50 53 60 68 71 61 59 57 61 60 46 36 38 36 34 32 26 28 23 18 8 6 6 5 5 4 4 4 3
44 48 46 41 37 33 27 25 26 28 41 44 48 55 54 64 75 60 62 60 61 64 50 37 37 38 39 39 33 24 24 19 11 8 7 6 5 4 4 4 4 3 3
35 32 29 28 27 25 26 38 46 48 52 58 61 63 58 65 65 62 60 66 57 44 39 37 39 45 47 41 27 22 17 8 6 7 6 5 5 4 4 4 3 3 3
29 29 26 25 37 45 43 46 59 66 73 65 55 61 61 57 58 56 60 47 41 41 40 43 55 55 42 29 22 13 7 7 6 5 4 4 4 4 4 4 3 3 3
26 31 42 52 50 55 62 70 72 67 63 69 69 55 53 51 54 52 44 42 41 44 56 59 50 40 28 19 10 7 7 6 5 4 4 4 4 4 3 3 3 3 3
46 48 51 63 63 66 67 68 79 74 63 54 50 51 56 57 49 43 45 46 58 64 56 46 37 25 15 8 7 7 6 5 5 4 4 4 4 4 3 3 3 3 3
58 62 67 75 75 84 79 72 60 54 51 53 61 65 48 44 53 57 61 69 62 50 44 30 18 8 8 7 6 5 4 5 4 4 4 4 4 3 3 3 3 4 5
84 92 98 91 68 55 50 50 55 61 64 68 51 44 57 64 67 72 70 58 54 48 30 14 8 7 6 5 5 5 4 4 4 4 4 4 3 3 3 3 4 5 6
Wind_Speed
32 32 31 32 33 35 38 40 40 38 35 35 37 33 36 39 38 39 39 38 37 37 38 42 43 43 43 44 44 46 48 50 50 52 56 59 63 66 69 71 72 75 74
30 30 31 36 35 34 36 34 33 33 36 35 32 34 36 36 38 40 38 38 39 39 40 42 43 44 46 48 50 51 53 56 58 59 60 63 70 71 73 74 74 76 79
32 27 31 34 37 35 29 27 25 26 30 31 33 35 36 37 36 37 38 39 40 41 42 43 46 47 47 50 52 55 57 60 64 64 63 65 68 71 74 78 82 84 86
34 31 30 31 32 28 27 26 26 26 26 27 27 30 35 37 37 39 41 42 43 44 46 47 48 49 50 53 55 58 60 62 66 70 73 74 74 75 72 78 83 88 93
34 33 32 31 29 28 28 26 25 24 26 26 27 29 31 34 37 40 42 44 47 48 50 51 52 53 55 57 59 61 62 64 67 69 73 78 82 84 83 78 82 87 90
36 35 34 32 32 29 28 29 29 31 31 32 34 37 39 41 43 44 46 47 50 53 55 55 56 58 59 60 62 65 66 69 73 74 77 78 80 84 87 89 88 89 94
39 38 36 34 34 33 31 31 31 33 34 37 40 42 44 48 50 52 54 56 58 59 60 61 61 63 65 67 69 71 74 76 78 81 83 85 88 90 93 93 92 92 94
42 39 37 38 37 36 33 34 35 36 39 42 45 48 51 54 57 59 60 62 63 65 66 67 68 68 69 71 74 76 77 80 84 86 87 90 93 95 96 99 101 98 99
41 38 36 36 34 35 34 34 36 39 44 47 50 53 56 58 61 63 66 69 70 71 72 74 74 74 75 76 78 79 83 86 87 90 93 96 98 100 105 108 109 107 99
40 36 35 35 35 36 37 39 42 44 48 51 55 59 63 65 67 69 71 74 75 76 79 80 79 80 80 81 82 85 88 89 93 95 96 98 102 106 109 108 108 113 116
39 37 37 38 39 40 42 43 47 51 55 58 61 65 68 71 74 76 77 80 80 82 85 83 82 83 83 85 87 90 91 94 95 98 101 106 108 109 107 109 113 118 126
40 42 42 43 43 45 47 50 54 57 61 63 67 70 73 76 79 82 83 84 85 86 86 84 84 85 87 89 91 93 95 97 99 103 107 108 108 108 111 116 121 127 132
45 45 46 48 50 51 53 56 60 64 67 69 72 75 78 82 85 87 88 87 89 88 86 85 87 89 91 93 94 95 98 102 105 107 107 106 111 113 119 125 130 133 133
49 50 52 53 54 56 60 63 67 70 72 74 78 80 83 87 89 89 89 90 89 86 86 88 90 93 94 95 97 99 103 105 106 106 110 112 117 124 129 131 131 129 127
53 55 57 58 60 64 66 70 72 74 77 80 82 84 88 91 90 90 90 88 86 87 89 91 92 95 97 99 101 103 103 104 108 110 116 122 128 131 133 132 127 120 112
58 59 60 63 67 70 72 74 77 79 82 84 87 90 92 91 90 89 86 86 88 90 90 91 95 97 100 103 103 102 105 109 112 117 123 129 132 133 130 124 115 111 109
62 65 67 69 72 74 76 78 81 83 85 88 91 92 90 88 85 84 85 86 87 89 92 95 96 100 101 101 105 108 112 116 122 126 130 133 132 127 116 109 107 105 104
65 67 69 71 74 77 80 83 85 87 90 90 88 87 83 82 83 84 85 86 88 92 94 97 98 97 101 106 111 115 119 124 130 134 135 131 121 113 110 102 98 97 95
67 69 72 76 79 82 83 85 88 88 86 82 78 78 80 81 81 82 85 89 92 94 95 96 97 101 106 113 119 122 125 131 135 138 133 121 113 107 101 94 88 85 83
71 75 78 81 83 84 86 85 84 77 74 76 77 77 78 77 81 85 88 90 91 93 94 98 102 109 114 121 126 128 131 133 132 124 119 114 106 100 91 85 79 75 74
76 78 80 83 84 83 77 70 71 73 74 73 73 74 77 80 85 88 88 91 91 96 99 104 110 118 124 128 131 135 135 128 117 113 107 102 95 88 83 78 73 68 66
78 81 82 79 70 68 69 70 69 69 70 71 74 77 82 84 86 86 89 92 96 102 107 112 118 125 129 133 137 134 124 117 110 104 98 89 84 80 76 71 67 63 57
74 68 64 64 66 67 66 66 66 69 70 73 78 82 82 83 85 87 91 97 103 109 116 122 126 130 135 136 129 118 113 107 102 96 89 83 78 74 69 64 60 55 51
59 63 64 63 62 62 63 67 69 72 75 79 79 81 78 80 86 92 98 104 112 118 123 127 132 135 133 123 114 107 101 96 92 87 83 78 72 67 63 57 53 49 43
57 55 56 58 62 65 68 70 73 76 76 75 71 75 80 86 92 99 107 113 119 124 130 134 133 126 115 109 102 97 92 86 83 79 75 70 66 61 55 51 47 41 38
53 55 59 62 66 69 70 70 71 69 65 70 74 80 87 93 99 106 111 119 126 132 136 132 122 112 105 98 93 90 85 80 77 73 68 64 59 55 49 45 40 36 33
Wind_Direction
237 243 245 245 252 254 261 266 272 273 265 269 274 271 275 285 289 294 295 293 294 296 297 296 294 290 286 284 282 280 279 278 276 274 275 277 279 280 280 281 281 282 281
234 236 243 248 247 255 261 265 271 266 263 276 275 277 284 289 293 294 296 297 298 300 301 300 296 292 290 288 286 284 283 282 282 281 282 281 282 282 282 283 282 281 280
224 230 239 247 249 250 254 264 271 272 274 282 284 281 286 289 293 295 297 297 297 298 299 298 296 293 291 289 289 287 286 285 285 285 282 280 280 281 284 285 285 285 285
224 230 235 236 239 245 252 258 263 271 279 285 290 289 288 289 293 293 294 294 295 293 294 293 291 290 291 290 288 289 289 288 287 288 288 286 282 279 279 282 283 286 285
224 229 234 240 244 252 258 263 272 278 286 290 295 299 300 299 297 296 297 296 296 293 290 291 290 290 288 287 287 288 287 286 287 288 288 289 289 289 288 284 284 285 285
226 231 236 244 251 255 262 269 279 284 292 298 302 304 306 306 305 305 303 302 302 300 298 297 294 294 293 293 293 292 292 293 293 293 293 291 290 290 289 289 288 286 284
228 231 241 249 253 262 267 276 283 288 293 298 300 303 306 306 306 305 306 306 303 302 301 300 298 297 295 297 297 295 294 295 295 295 294 294 294 293 290 288 286 285 285
230 235 244 253 259 265 270 277 284 292 297 300 301 304 305 304 303 304 304 303 303 303 303 301 299 299 300 298 297 297 296 297 296 295 296 295 292 293 292 290 289 287 288
233 240 246 253 261 267 274 281 291 297 298 298 302 303 303 303 303 302 303 304 304 303 302 302 301 301 300 299 299 298 298 298 297 296 296 294 292 292 294 294 293 292 289
234 241 248 255 263 270 278 285 290 295 296 299 301 303 302 302 304 305 303 303 302 302 302 302 302 301 301 301 299 298 299 298 296 297 295 294 295 295 295 295 294 294 295
235 242 251 259 267 274 279 283 289 293 296 298 300 301 302 303 303 304 304 304 303 303 304 303 302 301 300 300 300 300 299 298 297 296 296 295 296 296 295 295 296 296 296
240 248 255 262 269 276 280 284 288 291 295 298 299 301 302 302 303 304 304 304 303 304 303 302 301 301 300 300 300 298 297 297 297 298 298 297 296 296 296 297 297 297 297
244 250 258 263 268 273 279 283 288 291 295 296 298 300 301 303 302 303 304 303 303 303 303 301 300 300 300 298 298 298 299 300 299 298 298 297 297 298 298 297 298 299 300
247 253 258 263 268 275 282 286 289 292 294 296 298 299 301 301 302 302 301 302 302 302 300 300 300 299 298 299 300 300 299 299 298 298 300 300 300 299 299 299 302 304 304
254 258 263 268 274 279 283 287 289 292 293 295 297 298 300 300 300 300 301 301 300 300 299 299 299 298 300 300 300 300 299 299 300 302 303 301 301 301 303 305 306 305 302
259 264 269 273 277 281 285 287 290 292 294 296 297 298 298 298 299 299 300 300 300 300 299 299 299 301 301 301 301 300 301 303 303 303 303 303 304 307 307 308 307 305 303
264 269 273 276 280 282 285 287 289 291 294 295 296 296 296 297 298 299 299 299 299 299 300 300 302 301 302 302 303 303 304 305 305 306 306 308 309 309 309 309 307 306 304
266 270 274 277 280 283 285 288 290 292 293 294 293 294 295 297 298 298 298 299 299 299 301 302 302 304 304 304 304 305 306 308 308 309 310 311 310 310 310 309 308 306 305
269 273 276 279 281 283 286 287 289 291 291 291 292 294 297 297 298 299 299 299 301 302 302 303 304 305 305 305 306 308 309 310 310 311 311 312 311 311 310 309 308 306 305
273 275 277 279 281 284 286 287 287 288 289 291 295 296 298 298 298 299 300 302 303 303 303 305 306 307 307 309 309 310 310 311 312 313 312 311 312 312 311 310 309 308 308
273 276 279 281 283 285 285 285 287 289 292 294 295 296 297 300 300 302 303 304 303 304 306 307 308 310 310 310 310 311 312 313 313 312 310 313 313 312 311 310 311 310 308
276 277 279 280 281 283 284 288 289 291 294 294 296 299 300 300 302 302 303 304 306 306 307 309 310 310 309 310 311 313 313 313 313 312 313 314 314 313 312 313 312 312 311
275 275 278 279 283 286 287 289 291 294 295 297 298 299 300 302 303 303 304 306 307 309 310 311 310 309 310 312 314 314 313 313 313 314 315 316 314 314 315 315 314 314 312
273 276 281 284 286 288 291 293 295 296 298 298 299 301 303 303 304 306 307 308 309 310 310 310 310 311 312 314 314 313 313 314 315 316 317 316 316 317 316 316 315 314 315
278 280 284 287 289 291 293 293 295 296 297 299 302 302 303 305 307 308 309 310 310 311 310 310 312 313 314 314 314 314 314 317 316 316 317 317 318 318 318 318 317 318 318
279 282 285 288 290 292 294 294 295 297 299 301 302 304 307 308 309 309 310 311 312 312 311 313 314 315 315 315 316 316 318 319 317 318 319 319 319 320 320 320 321 321 320